Home   Weather   Albany   Past weeks
Flag for USA

Past Weather in Albany, New York, USA — Yesterday and Last 2 Weeks

Now
47 °F

Light rain. Fog.


Feels Like: 44 °F
Forecast: 49 / 43 °F
Wind: 6 mph from South

Location: Albany County Airport

Current Time: Mar 29, 2020 at 12:03:50 pm

Latest Report: Mar 29, 2020 at 10:51 am


Visibility: 5 mi

Pressure: 30.03 "Hg

Humidity: 83%

Dew Point: 42 °F

Location of AlbanyLocation

Past Weather in Albany — Graph

°F

Albany Temperature Yesterday

Maximum temperature yesterday: 51 °F (at 1:51 pm)
Minimum temperature yesterday: 31 °F (at 6:51 am)
Average temperature yesterday: 41 °F

High & Low Weather Summary for the Past Weeks

 TemperatureHumidityPressure
High74 °F (Mar 20, 5:34 pm)90% (Mar 29, 9:51 am)30.74 "Hg (Mar 29, 9:51 am)
Low22 °F (Mar 16, 5:51 am)19% (Mar 16, 1:51 pm)29.65 "Hg (Mar 20, 4:51 pm)
Average41 °F60%30.23 "Hg
* Reported Mar 14 10:51 am — Mar 29 10:51 am, Albany. Weather by CustomWeather, © 2020

Note: Actual official high and low records may vary slightly from our data, if they occured in-between our weather recording intervals... More about our weather records

Albany Weather History for the Previous 24 Hours

Scroll right to see more
 ConditionsComfort  
Time TempWeatherWind HumidityBarometerVisibility
10:51 am
Sun, Mar 29
47 °FLight rain. Fog.6 mph83%30.03 "Hg5 mi
9:51 am45 °FLight rain. Fog.6 mph90%30.05 "Hg3 mi
8:51 am44 °FLight rain. Fog.5 mph89%30.05 "Hg5 mi
8:10 am44 °FFog.No wind85%30.05 "Hg6 mi
7:51 am43 °FLight rain. Fog.No wind89%30.06 "Hg2 mi
7:25 am43 °FLight rain. Fog.No wind89%30.04 "Hg2 mi
7:04 am43 °FLight rain. Fog.No wind89%30.04 "Hg2 mi
6:51 am43 °FLight rain. Fog.No wind89%30.03 "Hg2 mi
6:44 am43 °FRain. Fog.6 mph89%30.03 "Hg2 mi
6:13 am43 °FLight rain. Fog.No wind89%30.05 "Hg2 mi
5:51 am43 °FDrizzle. Fog.No wind89%30.05 "Hg2 mi
5:44 am43 °FDrizzle. Fog.No wind86%30.05 "Hg2 mi
5:05 am43 °FLight rain. Fog.3 mph89%30.06 "Hg3 mi
4:51 am43 °FLight rain. Fog.3 mph89%30.06 "Hg2 mi
3:51 am43 °FDrizzle. Fog.No wind89%30.07 "Hg2 mi
2:51 am43 °FDrizzle. Fog.No wind89%30.06 "Hg2 mi
1:51 am43 °FDrizzle. Fog.3 mph86%30.09 "Hg2 mi
12:51 am43 °FDrizzle. Fog.3 mph86%30.09 "Hg3 mi
12:40 am43 °FDrizzle. Fog.No wind86%30.09 "Hg3 mi
11:51 pm
Sat, Mar 28
43 °FLight rain. Fog.No wind86%30.11 "Hg4 mi
11:34 pm43 °FDrizzle. Fog.No wind89%30.11 "Hg3 mi
10:57 pm43 °FLight rain. Fog.3 mph86%30.11 "Hg2 mi
10:37 pm43 °FLight rain. Fog.3 mph89%30.13 "Hg2 mi
9:51 pm43 °FLight rain. Fog.3 mph86%30.14 "Hg2 mi
8:51 pm43 °FLight rain. Fog.No wind86%30.14 "Hg6 mi
7:51 pm43 °FLight rain. Fog.No wind86%30.12 "Hg7 mi
7:37 pm43 °FLight rain. Fog.No wind86%30.12 "Hg6 mi
6:51 pm43 °FLight rain. Overcast.No wind82%30.11 "Hg7 mi
5:51 pm44 °FLight rain. Overcast.5 mph76%30.12 "Hg9 mi
4:51 pm44 °FLight rain. More clouds than sun.8 mph73%30.10 "Hg7 mi
3:51 pm47 °FLight rain. Mostly cloudy.8 mph61%30.10 "Hg9 mi
2:51 pm50 °FLight rain. Mostly cloudy.10 mph39%30.11 "Hg10 mi
1:51 pm51 °FMostly cloudy.7 mph38%30.13 "Hg10 mi
12:51 pm50 °FMostly cloudy.10 mph39%30.14 "Hg10 mi
Weather by CustomWeather, © 2020

See weather overview

Advertising